Regional Weather Roundup
Issued by NWS

Home | Current Version | Previous Version | Graphics & Text | Print | Product List | Glossary On
Versions: 1 2 3 4 5 6 7 8 9 10 11 12 13 14 15 16 17 18 19 20 21 22 23 24 25 26 27 28 29 30 31 32 33 34 35 36 37 38 39 40 41 42 43 44 45 46 47 48 49 50
000
ASUS43 KMKX 051500
RWRWI

WISCONSIN REGIONAL WEATHER ROUNDUP
NATIONAL WEATHER SERVICE MILWAUKEE/SULLIVAN WI
1000 AM CDT TUE MAY 05 2015

NOTE: "FAIR" INDICATES FEW OR NO CLOUDS BELOW 12,000 FEET WITH NO
SIGNIFICANT WEATHER AND/OR OBSTRUCTIONS TO VISIBILITY.

WIZ001-002-006>008-014>016-023>028-051600-
NORTHWEST WISCONSIN

CITY           SKY/WX    TMP DP  RH WIND       PRES   REMARKS
SUPERIOR ARPT  SUNNY     52  30  43 NE7       30.29F
ASHLAND        SUNNY     63  37  38 VRB6      30.30F
HAYWARD        SUNNY     62  30  29 E8        30.27F
SIREN          SUNNY     64  22  20 SE13      30.25S
CUMBERLAND     SUNNY     59  19  21 SE17G24   30.26F
RICE LAKE      SUNNY     61  24  24 SE13G20   30.28S
CHETEK         SUNNY     60  25  25 E14G24    30.27S
LADYSMITH      SUNNY     62  24  23 E12       30.30R
EAU CLAIRE     NOT AVBL
MENOMONIE      SUNNY     58  33  37 E12       30.25F
NEW RICHMOND   SUNNY     60  32  34 E12       30.24S
OSCEOLA        SUNNY     61  32  33 SE15G21   30.26S
$$

WIZ003>005-009-010-017-018-051600-
NORTH CENTRAL WISCONSIN

CITY           SKY/WX    TMP DP  RH WIND       PRES   REMARKS
MANITOWISH WTR SUNNY     60  32  34 SE6       30.31S
ARBOR VITAE    SUNNY     60  27  28 SE9       30.31S
WOODRUFF       SUNNY     60  27  28 SE9       30.31S
RHINELANDER    SUNNY     62  25  24 E10       30.31F
EAGLE RIVER    SUNNY     60  22  23 E8        30.32S
LAND O LAKES   SUNNY     61  24  24 SE7       30.33S
PHILLIPS       SUNNY     60  24  25 E10       30.29S
TOMAHAWK       SUNNY     62  17  17 E8        30.30S
MEDFORD        SUNNY     58  27  31 E9G16     30.29S
MERRILL        SUNNY     61  21  22 SE10      30.30S
$$

WIZ029-030-035-036-043>047-051600-
CENTRAL WISCONSIN

CITY           SKY/WX    TMP DP  RH WIND       PRES   REMARKS
WAUSAU         SUNNY     59  26  28 SE10      30.29S
MOSINEE        NOT AVBL
MARSHFIELD     SUNNY     59  32  36 SE15      30.29S
STEVENS POINT  MOSUNNY   57  30  36 E13       30.30S
WAUPACA        MOSUNNY   56  36  47 E7        30.31R
WAUTOMA        NOT AVBL
WISC RAPIDS    NOT AVBL
CAMP DOUGLAS   NOT AVBL
$$

WIZ011>013-019>022-031-037>040-048>050-051600-
NORTHEAST WISCONSIN

CITY           SKY/WX    TMP DP  RH WIND       PRES   REMARKS
ANTIGO         SUNNY     56  28  34 E14       30.32S
SHAWANO        MOSUNNY   57  36  44 E12       30.33S
OCONTO         MOSUNNY   53  38  56 E7        30.34S
STURGEON BAY   MOSUNNY   52  34  50 E12       30.36S
GREEN BAY      PTSUNNY   55  37  50 NE9       30.32R
MANITOWOC      NOT AVBL
APPLETON       PTSUNNY   54  34  47 E7        30.30S
CLINTONVILLE   MOSUNNY   57  30  35 E9        30.31S
OSHKOSH        CLOUDY    54  37  52 E9        30.29R
$$

WIZ032>034-041-042-053>061-051600-
SOUTHWEST WISCONSIN

CITY           SKY/WX    TMP DP  RH WIND       PRES   REMARKS
LA CROSSE      LGT RAIN  54  48  80 SE8       30.25R
SPARTA         CLOUDY    54  39  57 E9        30.27S
VIROQUA        CLOUDY    49  49 100 E10       30.25R
BOSCOBEL       LGT RAIN  52  48  86 NE7       30.25R
PRAIRIE DU CHI DRIZZLE   52  47  83 E10       30.22S
PLATTEVILLE    CLOUDY    51  49  93 E17G25    30.21S
$$

WIZ056-057-062-063-064-067-068-051600-
SOUTH CENTRAL WISCONSIN

CITY           SKY/WX    TMP DP  RH WIND       PRES   REMARKS
REEDSBURG      DRIZZLE   47  46  94 E5        30.27R
BARABOO/DELLS  NOT AVBL
LONE ROCK      NOT AVBL
MINERAL POINT  LGT RAIN  52  46  82 E16G22    30.22F
MADISON        LGT RAIN  51  46  83 E7        30.26R
MIDDLETON      CLOUDY    51  46  86 E8        30.26S
WATERTOWN      DRIZZLE   50  49  97 E5        30.25R
MONROE         RAIN      50  48  93 NE12      30.24R
JANESVILLE     LGT RAIN  52  48  87 E9        30.24R FOG
$$

WIZ051-052-058>065-066-070>072-051600-
SOUTHEAST WISCONSIN

CITY           SKY/WX    TMP DP  RH WIND       PRES   REMARKS
MILWAUKEE      LGT RAIN  47  42  83 E12       30.28R
WAUKESHA       LGT RAIN  48  46  93 E12       30.28R
MILWAUKEE/TIMM LGT RAIN  48  43  81 E8        30.28R
RACINE         LGT RAIN  46  43  89 NE9       30.28R
BURLINGTON     RAIN      47  46  96 E9        30.25S
KENOSHA        LGT RAIN  48  45  89 NE8       30.27R
FOND DU LAC    CLOUDY    53  38  56 NE9       30.29R
SHEBOYGAN      CLOUDY    49  37  63 NE8       30.30R
WEST BEND      DRIZZLE   46  43  87 E6        30.27S
JUNEAU         RAIN      50  46  85 NE7       30.27S
$$

LSZ147-162-051600-
LAKE SUPERIOR

STATION/POSITION TIME  TEMP    WIND        PRES    WAVE
                       AIR SEA DIR/SP/G            HT/PER
                 (UTC) (F)     (DEG/KT/KT) (MB)    (FT/S)
W MID LAKE BUOY  1350   40 35  170/  4/  4 1027.6R   0
DEVILS ISLAND    1400   52     100/  2/  4 1026.8R
PORT WING        1400   43      20/  4/  5 1026.4R
SAXON HARBOR     1440   46        CALM     1026.1S
$$

LMZ867-665-643>646-051600-
LAKE MICHIGAN

STATION/POSITION TIME  TEMP    WIND        PRES    WAVE
                       AIR SEA DIR/SP/G            HT/PER
                 (UTC) (F)     (DEG/KT/KT) (MB)    (FT/S)
CHAMBERS ISLAND  1400   49      20/  6/  8 1027.8R
NORTHPORT PIER   1400   48     110/  3/  6 1027.4S
SISTER BAY       1302          100/ 10/ 13   N/A
KEWAUNEE LAKESHO 1400   44      40/ 12/ 15 1025.7F
SHEBOYGAN LAKESH 1400   43      10/  7/  8 1026.4S
PORT WASHINGTON  1440   46      30/  7/  9 1026.1R
ATWATER BUOY     1400   44      50/  8/ 12 1025.7S
MILWAUKEE LAKESH 1400   45      50/ 11/ 13   N/A
KENOSHA   LAKESH 1400   45      20/ 12/ 14 1024.0R
$$

TC  - TEMPERATURE IN CELSIUS
VSB - VISIBILITY IN STATUTE MILES
WCI - WIND CHILL INDEX
HX  - HEAT INDEX




USA.gov is the U.S. government's official web portal to all federal, state and local government web resources and services.